Flag for Egypt Weather past 2 weeks in Alexandria, Egypt

Now
79 °F

Passing clouds.


Feels Like: 81 °F
Forecast: 79 / 87 °F
Wind: 7 mph from North

Location: Alexandria / Nouzha

Current Time: Jul 29, 2015 at 3:21:54 AM

Latest Report: Jul 29, 2015 at 2:00 AM


Visibility: N/A

Pressure: 29.71 "Hg

Humidity: 74%

Dew point: 70 °F

Location of AlexandriaLocation

Historic Weather in Alexandria — Graph

°F

Alexandria temperature yesterday

Maximum temperature yesterday: 99 °F (at 8:00 PM)
Minimum temperature yesterday: 77 °F (at 4:00 AM)
Average temperature yesterday: 83 °F

Past Weeks' High & Low Weather Summary

 TemperatureHumidityPressure
High99 °F (Jul 28, 8:00 PM)94% (Jul 22, 3:00 AM)29.89 "Hg (Jul 22, 3:00 AM)
Low68 °F (Jul 22, 5:00 AM)22% (Jul 28, 8:00 PM)29.62 "Hg (Jul 28, 8:00 PM)
Average81 °F68%29.76 "Hg
* Reported Jul 14 1:00 AM — Jul 29 1:00 AM, Alexandria, Weather by CustomWeather, © 2015

Note: Actual official high and low records may vary slightly from our data, if they occured in-between our weather recording intervals... More about our weather records

Advertising

Alexandria weather history for previous 24 hours

 ConditionsComfort  
Time TempWeatherWind HumidityBarometerVisibility
1:00 AM
Wed, Jul 29
79 °FPassing clouds.7 mph74%29.71 "HgN/A
12:00 AM79 °FPassing clouds.6 mph74%29.77 "HgN/A
11:00 PM
Tue, Jul 28
81 °FClear.7 mph70%29.71 "Hg10 mi
10:00 PM81 °FClear.7 mph70%29.71 "Hg10 mi
9:00 PM81 °FClear.7 mph70%29.74 "Hg10 mi
8:00 PM99 °FClear.12 mph22%29.62 "Hg10 mi
7:00 PM82 °FClear.9 mph66%29.71 "Hg10 mi
6:00 PM84 °FSunny.12 mph62%29.71 "Hg10 mi
5:00 PM86 °FSunny.12 mph59%29.71 "Hg10 mi
4:00 PM86 °FSunny.10 mph55%29.71 "Hg10 mi
3:00 PM88 °FSunny.10 mph52%29.71 "Hg10 mi
2:00 PM88 °FSunny.9 mph49%29.74 "Hg10 mi
12:00 PM88 °FSunny.10 mph52%29.74 "Hg10 mi
11:00 AM88 °FSunny.9 mph52%29.74 "Hg10 mi
10:00 AM86 °FPassing clouds.7 mph55%29.77 "HgN/A
9:00 AM84 °FScattered clouds.7 mph58%29.74 "HgN/A
8:00 AM82 °FSunny.2 mph66%29.71 "Hg10 mi
7:00 AM81 °FSunny.5 mph66%29.71 "Hg10 mi
6:00 AM79 °FSunny.2 mph70%29.68 "Hg10 mi
5:00 AM79 °FClear.5 mph70%29.68 "Hg10 mi
4:00 AM77 °FClear.6 mph74%29.68 "Hg10 mi
3:00 AM79 °FClear.5 mph70%29.68 "Hg10 mi
Weather by CustomWeather, © 2015

See weather overviewHow to use our weather pages